COSMOS 2545 (760)

Last updated on Thu Nov 21 2024 00:03:12 GMT+0000 (Coordinated Universal Time)

1 45358U 20018A 24325.31965927 -.00000055 00000+0 00000+0 0 9993 2 45358 64.6761 332.5175 0012252 248.6603 111.2357 2.13102555 36434
UTC large
Height (km)
Speed (km/s)
/
Latitude / Longitude
Inclination (degrees)
Orbital Period (minutes)
Azimuth
Elevation
Range (km)
Doppler Factor

Next 0 passes for location: London (51.5072 / 0.1276)

Sorry there are no passes over London.